Location: Ostrava
(49.8330°N, 18.2830°E)
Time: 20:07:17
(UTC+01:00)

Iridium 39 - Visible Passes

Search period start: 27 March 2015 00:00
Search period end: 06 April 2015 01:00
Orbit: 776 x 779 km, 86.4° (Epoch: 26 March)

Date Brightness Start Highest point End Pass type
(mag) Time Alt. Az. Time Alt. Az. Time Alt. Az.
27 Mar 8.4 21:23:55 10° NE 21:24:32 11° NE 21:24:32 11° NE visible
27 Mar 7.8 23:02:35 10° N 23:05:01 28° N 23:05:01 28° N visible
28 Mar 8.6 00:44:40 10° NW 00:45:29 13° NW 00:45:29 13° NW visible
28 Mar 7.7 22:29:10 10° N 22:31:42 27° NNE 22:31:42 27° NNE visible
29 Mar 8.2 00:10:20 10° NNW 00:12:10 19° NW 00:12:10 19° NW visible
29 Mar 7.9 22:55:58 10° NNE 22:58:23 21° NE 22:58:23 21° NE visible
30 Mar 7.9 00:36:24 10° NNW 00:38:51 26° NNW 00:38:51 26° NNW visible
30 Mar 8.1 22:23:09 10° NNE 22:25:04 15° NE 22:25:04 15° NE visible
31 Mar 7.5 00:02:42 10° N 00:05:33 33° N 00:05:33 33° N visible
31 Mar 8.7 01:45:46 10° NW 01:46:01 10° NW 01:46:01 10° NW visible
31 Mar 7.4 23:29:10 10° N 23:32:14 35° NNE 23:32:14 35° NNE visible
01 Apr 8.3 01:10:50 10° NNW 01:12:43 17° NW 01:12:43 17° NW visible
01 Apr 7.4 22:55:50 10° N 22:58:56 29° NE 22:58:56 29° NE visible
02 Apr 7.9 00:36:42 10° NNW 00:39:25 25° NW 00:39:25 25° NW visible
02 Apr 7.7 22:22:45 10° NNE 22:25:38 21° NE 22:25:38 21° NE visible
03 Apr 7.4 00:02:52 10° NNW 00:06:07 36° NNW 00:06:07 36° NNW visible
03 Apr 8.1 21:50:12 10° NE 21:52:21 14° ENE 21:52:21 14° ENE visible
03 Apr 6.9 23:29:14 10° N 23:32:50 45° N 23:32:50 45° N visible
04 Apr 8.4 01:11:35 10° NW 01:13:18 14° WNW 01:13:18 14° WNW visible
04 Apr 6.9 22:55:47 10° N 22:59:32 41° NE 22:59:32 41° NE visible
05 Apr 7.9 00:37:06 10° NNW 00:40:01 23° WNW 00:40:01 23° WNW visible
05 Apr 7.2 22:22:31 10° NNE 22:26:15 29° ENE 22:26:15 29° ENE visible
06 Apr 7.3 00:03:05 10° NNW 00:06:44 35° NW 00:06:44 35° NW visible
